Home   Weather   Jackson   Past weeks

Flag for USA Past Weather in Jackson, Mississippi, USA — Yesterday and Last 2 Weeks

Now
61 °F

Low clouds.


Feels Like: 61 °F
Forecast: 60 / 75 °F
Wind: 8 mph from Southeast

Location: Hawkins Field

Current Time: Jan 16, 2017 at 5:10:54 am

Latest Report: Jan 16, 2017 at 3:53 am


Visibility: 10 mi

Pressure: 30.09 "Hg

Humidity: 93%

Dew Point: 59 °F

Location of JacksonLocation

Past Weather in Jackson — Graph

°F

Jackson Temperature Yesterday

Maximum temperature yesterday: 74 °F (at 12:53 pm)
Minimum temperature yesterday: 52 °F (at 6:51 am)
Average temperature yesterday: 66 °F

High & Low Weather Summary for the Past Weeks

 TemperatureHumidityPressure
High77 °F (Jan 12, 3:53 pm)100% (Jan 13, 6:53 am)30.79 "Hg (Jan 13, 6:53 am)
Low17 °F (Jan 8, 6:53 am)34% (Jan 8, 1:53 pm)29.73 "Hg (Jan 2, 3:53 pm)
Average53 °F78%30.18 "Hg
* Reported Jan 1 3:53 am — Jan 16 3:53 am, Jackson, Weather by CustomWeather, © 2017

Note: Actual official high and low records may vary slightly from our data, if they occured in-between our weather recording intervals... More about our weather records

Advertising

Jackson Weather History for the Previous 24 Hours

Scroll right to see more
 ConditionsComfort  
Time TempWeatherWind HumidityBarometerVisibility
3:53 am
Mon, Jan 16
61 °FLow clouds.8 mph93%30.09 "Hg10 mi
3:31 am61 °FPassing clouds.7 mph93%30.11 "Hg10 mi
2:53 am61 °FClear.10 mph90%30.09 "Hg10 mi
2:36 am61 °FPassing clouds.10 mph90%30.12 "Hg10 mi
2:15 am61 °FPassing clouds.10 mph87%30.13 "Hg10 mi
1:53 am61 °FOvercast.8 mph83%30.12 "Hg10 mi
1:36 am60 °FMostly cloudy.7 mph86%30.14 "Hg10 mi
12:53 am58 °FPassing clouds.6 mph90%30.11 "Hg10 mi
11:53 pm
Sun, Jan 15
61 °FOvercast.6 mph81%30.12 "Hg10 mi
10:53 pm62 °FOvercast.8 mph80%30.11 "Hg10 mi
9:53 pm62 °FClear.6 mph78%30.11 "Hg10 mi
8:53 pm63 °FClear.7 mph75%30.12 "Hg10 mi
7:53 pm64 °FClear.7 mph70%30.13 "Hg10 mi
6:53 pm65 °FClear.7 mph68%30.14 "Hg10 mi
5:53 pm67 °FClear.7 mph63%30.14 "Hg10 mi
4:53 pm69 °FSunny.9 mph59%30.14 "Hg10 mi
3:53 pm73 °FPartly sunny.12 mph50%30.14 "Hg10 mi
2:53 pm74 °FPartly sunny.10 mph46%30.14 "Hg10 mi
1:54 pm73 °FSunny.9 mph50%30.18 "Hg10 mi
12:53 pm74 °FPartly sunny.5 mph46%30.18 "Hg10 mi
11:56 am73 °FSunny.7 mph53%30.24 "Hg10 mi
10:58 am72 °FSunny.3 mph57%30.29 "Hg10 mi
9:55 am64 °FSunny.No wind73%30.31 "Hg10 mi
9:00 am61 °FSunny.3 mph83%30.31 "Hg7 mi
7:59 am54 °FFog.No wind94%30.30 "Hg5 mi
6:51 am52 °FFog.No wind88%30.28 "Hg6 mi
Weather by CustomWeather, © 2017

See weather overviewHow to use our weather pages